GW4969 Weather Reports


Display with metric or nautical units.
time (UTC)temp
F
wind
direction
speed
MPH
gust
MPH
rain 1hr
in
rain 24hr
in
rain mn
in
humidity
%
barometer
mb
20260507003841 69 31 4.0 9.0 0.00 0.00 0.00 61 1017.9
20260507003340 70 331 1.0 9.0 0.00 0.00 0.00 61 1017.9
20260507002841 69 23 2.0 7.0 0.00 0.00 0.00 61 1018.0
20260507002341 70 212 4.0 7.0 0.00 0.00 0.00 60 1018.0
20260507002033 70 51 1.0 10.0 0.00 0.00 0.00 60 1018.0
20260507001924 70 226 3.0 6.0 0.00 0.00 0.00 61 1017.9
20260507001057 70 252 4.0 12.0 0.00 0.00 0.00 60 1018.0
20260507000343 70 245 5.0 12.0 0.00 0.00 0.00 59 1017.9
20260506235839 71 272 3.0 9.0 0.00 0.00 0.00 58 1017.9
20260506235341 71 104 2.0 6.0 0.00 0.00 0.00 58 1017.8
20260506234840 71 264 4.0 9.0 0.00 0.00 0.00 58 1017.8
20260506234340 71 248 2.0 9.0 0.00 0.00 0.00 57 1017.8
20260506233840 71 269 3.0 7.0 0.00 0.00 0.00 58 1017.8
20260506233340 71 25 2.0 6.0 0.00 0.00 0.00 57 1017.8
20260506233103 71 0 2.0 9.0 0.00 0.00 0.00 58 1017.8
20260506232340 71 32 2.0 9.0 0.00 0.00 0.00 57 1017.8
20260506231839 71 85 2.0 6.0 0.00 0.00 0.00 56 1018.0
20260506231339 71 72 2.0 6.0 0.00 0.00 0.00 56 1017.9
20260506230839 72 89 2.0 7.0 0.00 0.00 0.00 56 1017.9
20260506230339 72 269 2.0 7.0 0.00 0.00 0.00 56 1018.1
20260506225838 72 3 2.0 7.0 0.00 0.00 0.00 57 1018.0
20260506225824 72 82 1.0 4.0 0.00 0.00 0.00 56 1018.1
20260506225101 72 251 2.0 7.0 0.00 0.00 0.00 56 1018.2
20260506224339 72 272 2.0 9.0 0.00 0.00 0.00 55 1018.2
20260506223838 72 262 3.0 10.0 0.00 0.00 0.00 55 1018.2
20260506223337 72 289 3.0 10.0 0.00 0.00 0.00 55 1018.3
20260506222838 73 298 2.0 7.0 0.00 0.00 0.00 54 1018.3
20260506222338 73 269 3.0 7.0 0.00 0.00 0.00 53 1018.3
20260506221838 73 180 2.0 7.0 0.00 0.00 0.00 52 1018.4
20260506221338 73 285 2.0 9.0 0.00 0.00 0.00 53 1018.5
20260506220838 73 79 2.0 9.0 0.00 0.00 0.00 52 1018.5
20260506220338 73 259 2.0 5.0 0.00 0.00 0.00 53 1018.5
20260506215837 73 45 3.0 5.0 0.00 0.00 0.00 53 1018.6
20260506215336 73 21 2.0 6.0 0.00 0.00 0.00 52 1018.6
20260506214837 73 314 2.0 6.0 0.00 0.00 0.00 52 1018.7
20260506214338 73 220 2.0 5.0 0.00 0.00 0.00 51 1018.8
20260506213837 74 140 2.0 6.0 0.00 0.00 0.00 52 1018.8
20260506213555 73 251 2.0 6.0 0.00 0.00 0.00 52 1018.8
20260506212837 73 61 2.0 6.0 0.00 0.00 0.00 54 1018.9
20260506212337 73 255 2.0 6.0 0.00 0.00 0.00 53 1019.0
20260506211837 73 226 1.0 5.0 0.00 0.00 0.00 53 1019.0
20260506211335 72 285 3.0 6.0 0.00 0.00 0.00 53 1019.1
20260506210836 72 313 2.0 6.0 0.00 0.00 0.00 55 1019.2
20260506210335 72 226 2.0 6.0 0.00 0.00 0.00 54 1019.2
20260506210056 72 216 1.0 5.0 0.00 0.00 0.00 54 1019.2
20260506205335 72 279 2.0 6.0 0.00 0.00 0.00 54 1019.2
20260506204835 72 69 1.0 6.0 0.00 0.00 0.00 55 1019.2
20260506204337 72 274 2.0 6.0 0.00 0.00 0.00 55 1019.4
20260506203836 72 47 1.0 6.0 0.00 0.00 0.00 53 1019.4
20260506203335 72 110 2.0 6.0 0.00 0.00 0.00 52 1019.4
20260506202834 72 94 2.0 6.0 0.00 0.00 0.00 53 1019.6
20260506202335 72 85 1.0 6.0 0.00 0.00 0.00 56 1019.6
20260506202058 72 49 2.0 6.0 0.00 0.00 0.00 55 1019.7
20260506201335 73 7 2.0 5.0 0.00 0.00 0.00 54 1019.7
20260506201100 71 336 2.0 5.0 0.00 0.00 0.00 53 1019.7
20260506200815 71 231 2.0 7.0 0.00 0.00 0.00 53 1019.7
20260506195834 71 303 3.0 7.0 0.00 0.00 0.00 53 1019.7
20260506195335 72 62 2.0 6.0 0.00 0.00 0.00 56 1019.8
20260506194834 73 257 1.0 5.0 0.00 0.00 0.00 52 1019.8
20260506194334 72 25 2.0 6.0 0.00 0.00 0.00 53 1019.8
20260506194054 70 266 2.0 6.0 0.00 0.00 0.00 55 1019.9
20260506193335 70 317 1.0 5.0 0.00 0.00 0.00 54 1019.9
20260506192834 70 285 2.0 5.0 0.00 0.00 0.00 54 1019.9
20260506192333 71 295 1.0 4.0 0.00 0.00 0.00 55 1020.1
20260506191834 70 309 1.0 5.0 0.00 0.00 0.00 55 1020.0
20260506191334 70 10 2.0 5.0 0.00 0.00 0.00 54 1020.1
20260506190833 70 56 2.0 3.0 0.00 0.00 0.00 54 1020.2
20260506190333 70 281 2.0 7.0 0.00 0.00 0.00 55 1020.3
20260506190058 70 293 2.0 7.0 0.00 0.00 0.00 55 1020.2
20260506185334 70 248 2.0 5.0 0.00 0.00 0.00 56 1020.2
20260506184833 69 333 2.0 4.0 0.00 0.00 0.00 58 1020.2
20260506184333 69 0 1.0 5.0 0.00 0.00 0.00 58 1020.4
20260506183832 68 310 2.0 5.0 0.00 0.00 0.00 58 1020.4
20260506183332 68 317 2.0 5.0 0.00 0.00 0.00 59 1020.5
20260506183055 67 274 1.0 5.0 0.00 0.00 0.00 59 1020.4
20260506182332 67 247 2.0 6.0 0.00 0.00 0.00 59 1020.6
20260506182054 67 258 2.0 7.0 0.00 0.00 0.00 59 1020.6
20260506181332 67 281 1.0 7.0 0.00 0.00 0.00 62 1020.6
20260506180831 66 58 2.0 5.0 0.00 0.00 0.00 60 1020.5
20260506180332 66 39 2.0 5.0 0.00 0.00 0.00 62 1020.5
20260506175832 65 299 2.0 5.0 0.00 0.00 0.00 63 1020.6
20260506175331 65 0 1.0 5.0 0.00 0.00 0.00 64 1020.5
20260506175052 65 16 2.0 5.0 0.00 0.00 0.00 63 1020.6
20260506174330 64 281 2.0 5.0 0.00 0.00 0.00 65 1020.5
20260506173831 64 259 2.0 5.0 0.00 0.00 0.00 65 1020.6
20260506173331 64 331 2.0 5.0 0.00 0.00 0.00 65 1020.5
20260506172831 64 278 3.0 5.0 0.00 0.00 0.00 66 1020.6
20260506172330 63 275 2.0 7.0 0.00 0.00 0.00 65 1020.6
20260506172058 63 282 4.0 7.0 0.00 0.00 0.00 67 1020.7
20260506171331 62 254 2.0 5.0 0.00 0.00 0.00 67 1020.6
20260506170830 62 261 2.0 5.0 0.00 0.00 0.00 67 1020.6
20260506170551 62 281 2.0 6.0 0.00 0.00 0.00 68 1020.7
20260506165830 62 0 2.0 6.0 0.00 0.00 0.00 69 1020.6
20260506165330 62 278 2.0 5.0 0.00 0.00 0.00 70 1020.6
20260506164831 61 233 1.0 3.0 0.00 0.00 0.00 69 1020.6
20260506164330 61 307 1.0 5.0 0.00 0.00 0.00 71 1020.7
20260506164314 61 261 3.0 5.0 0.00 0.00 0.00 70 1020.6
20260506163330 61 302 2.0 5.0 0.00 0.00 0.00 71 1020.7
20260506162829 61 257 0.0 5.0 0.00 0.00 0.00 71 1020.7
20260506162329 60 269 2.0 4.0 0.00 0.00 0.00 72 1020.7
20260506161829 60 298 2.0 4.0 0.00 0.00 0.00 72 1020.7
20260506161328 60 326 1.0 3.0 0.00 0.00 0.00 73 1020.6
20260506160829 60 48 1.0 4.0 0.00 0.00 0.00 72 1020.8
20260506160330 60 265 1.0 4.0 0.00 0.00 0.00 72 1020.7
20260506155829 60 274 1.0 3.0 0.00 0.00 0.00 72 1020.6
20260506155329 60 271 2.0 5.0 0.00 0.00 0.00 72 1020.7
20260506154829 59 266 2.0 5.0 0.00 0.00 0.00 73 1020.7
20260506154328 59 271 1.0 4.0 0.00 0.00 0.00 74 1020.7
20260506154054 59 269 2.0 5.0 0.00 0.00 0.00 74 1020.7
20260506153328 59 275 2.0 5.0 0.00 0.00 0.00 73 1020.7
20260506152828 59 281 1.0 4.0 0.00 0.00 0.00 75 1020.6
20260506152328 59 303 2.0 4.0 0.00 0.00 0.00 75 1020.7
20260506151828 58 265 3.0 4.0 0.00 0.00 0.00 75 1020.7
20260506151328 58 274 2.0 4.0 0.00 0.00 0.00 75 1020.7
20260506150828 58 274 3.0 4.0 0.00 0.00 0.00 75 1020.6
20260506150548 58 306 1.0 3.0 0.00 0.00 0.00 75 1020.6
20260506145827 58 317 0.0 3.0 0.00 0.00 0.00 76 1020.7
20260506145545 58 272 0.0 2.0 0.00 0.00 0.00 76 1020.7
20260506144827 58 272 0.0 2.0 0.00 0.00 0.00 76 1020.7
20260506144327 58 271 0.0 3.0 0.00 0.00 0.00 76 1020.7
20260506143826 58 271 0.0 3.0 0.00 0.00 0.00 76 1020.7
20260506143327 58 271 1.0 4.0 0.00 0.00 0.00 76 1020.6
20260506142826 58 268 1.0 4.0 0.00 0.00 0.00 76 1020.6
20260506142327 57 299 0.0 4.0 0.00 0.00 0.00 76 1020.6
20260506141826 57 299 2.0 4.0 0.00 0.00 0.00 76 1020.6
20260506141325 57 274 1.0 3.0 0.00 0.00 0.00 77 1020.6
20260506141044 57 272 1.0 4.0 0.00 0.00 0.00 77 1020.5
20260506140326 57 272 1.0 4.0 0.00 0.00 0.00 77 1020.4
20260506140050 56 279 0.0 2.0 0.00 0.00 0.00 77 1020.3
20260506135326 56 283 0.0 2.0 0.00 0.00 0.00 77 1020.2
20260506134826 56 285 0.0 1.0 0.00 0.00 0.00 77 1020.2
20260506134326 56 285 0.0 1.0 0.00 0.00 0.00 77 1020.1
20260506134044 56 285 0.0 1.0 0.00 0.00 0.00 77 1020.0
20260506133326 56 285 0.0 1.0 0.00 0.00 0.00 77 1019.9
20260506132824 56 285 0.0 0.0 0.00 0.00 0.00 76 1019.8
20260506132326 56 285 0.0 1.0 0.00 0.00 0.00 76 1019.8
20260506131825 56 285 0.0 1.0 0.00 0.00 0.00 76 1019.9
20260506131326 56 285 0.0 0.0 0.00 0.00 0.00 76 1019.8
20260506131045 56 285 0.0 0.0 0.00 0.00 0.00 76 1019.7
20260506130812 56 285 0.0 1.0 0.00 0.00 0.00 76 1019.7
20260506130053 56 285 0.0 1.0 0.00 0.00 0.00 76 1019.7
20260506125326 56 285 0.0 0.0 0.00 0.00 0.00 76 1019.6
20260506124823 56 285 0.0 0.0 0.00 0.00 0.00 75 1019.6
20260506124324 56 285 0.0 1.0 0.00 0.00 0.00 75 1019.6
20260506123824 56 285 0.0 1.0 0.00 0.00 0.00 75 1019.6
20260506123546 56 285 0.0 0.0 0.00 0.00 0.00 75 1019.6
20260506122824 56 285 0.0 0.0 0.00 0.00 0.00 75 1019.6
20260506122324 57 285 0.0 0.0 0.00 0.00 0.00 75 1019.7
20260506121824 57 285 0.0 0.0 0.00 0.00 0.00 75 1019.6
20260506121544 57 285 0.0 1.0 0.00 0.00 0.00 75 1019.6
20260506120824 57 285 0.0 1.0 0.00 0.00 0.00 75 1019.5
20260506120542 57 262 0.0 0.0 0.00 0.00 0.00 74 1019.5
20260506120048 57 262 0.0 0.0 0.00 0.00 0.00 74 1019.5
20260506115323 57 262 0.0 0.0 0.00 0.00 0.00 74 1019.5
20260506114823 57 262 0.0 0.0 0.00 0.00 0.00 74 1019.3
20260506114323 57 262 0.0 2.0 0.00 0.00 0.00 74 1019.3
20260506113823 57 262 1.0 2.0 0.00 0.00 0.00 74 1019.4
20260506113322 57 266 0.0 0.0 0.00 0.00 0.00 74 1019.3
20260506112823 57 266 0.0 0.0 0.00 0.00 0.00 74 1019.3
20260506112321 57 266 0.0 0.0 0.00 0.00 0.00 74 1019.2
20260506111822 57 266 0.0 1.0 0.00 0.00 0.00 74 1019.2
20260506111322 57 266 0.0 1.0 0.00 0.00 0.00 74 1019.2
20260506110823 57 266 0.0 0.0 0.00 0.00 0.00 74 1019.2
20260506110322 57 266 0.0 0.0 0.00 0.00 0.00 75 1019.2
20260506110045 57 266 0.0 0.0 0.00 0.00 0.00 75 1019.2
20260506105322 57 266 0.0 0.0 0.00 0.00 0.00 75 1019.2
20260506104823 57 266 0.0 0.0 0.00 0.00 0.00 75 1019.1
20260506104322 57 266 0.0 0.0 0.00 0.00 0.00 74 1019.0
20260506103820 57 266 0.0 0.0 0.00 0.00 0.00 75 1019.0
20260506103321 57 266 0.0 0.0 0.00 0.00 0.00 74 1019.0
20260506102822 57 266 0.0 0.0 0.00 0.00 0.00 74 1019.0
20260506102321 58 266 0.0 0.0 0.00 0.00 0.00 74 1019.0
20260506101822 58 266 0.0 1.0 0.00 0.00 0.00 74 1019.1
20260506101321 58 266 0.0 1.0 0.00 0.00 0.00 74 1019.0
20260506100822 58 266 0.0 0.0 0.00 0.00 0.00 74 1019.1
20260506100321 58 266 0.0 0.0 0.00 0.00 0.00 74 1019.0
20260506100049 58 266 0.0 2.0 0.00 0.00 0.00 74 1019.0
20260506095320 58 266 0.0 2.0 0.00 0.00 0.00 74 1019.0
20260506094820 58 347 0.0 2.0 0.00 0.00 0.00 74 1019.0
20260506094547 58 347 0.0 2.0 0.00 0.00 0.00 74 1019.0
20260506093820 58 0 0.0 2.0 0.00 0.00 0.00 74 1019.0
20260506093319 58 293 0.0 2.0 0.00 0.00 0.00 75 1019.0
20260506092820 58 298 0.0 2.0 0.00 0.00 0.00 75 1019.1
20260506092320 58 298 0.0 2.0 0.00 0.00 0.00 75 1019.2
20260506091820 58 298 0.0 1.0 0.00 0.00 0.00 75 1019.1
20260506091541 58 250 0.0 2.0 0.00 0.00 0.00 75 1019.1
20260506090819 58 248 0.0 3.0 0.00 0.00 0.00 75 1019.1
20260506090756 58 271 0.0 3.0 0.00 0.00 0.00 76 1019.1
20260506085819 58 268 0.0 3.0 0.00 0.00 0.00 76 1019.0
20260506085319 58 254 1.0 2.0 0.00 0.00 0.00 76 1019.0
20260506085036 58 278 0.0 3.0 0.00 0.00 0.00 75 1019.0
20260506084320 57 276 1.0 3.0 0.00 0.00 0.00 75 1019.1
20260506083819 57 282 0.0 2.0 0.00 0.00 0.00 75 1019.1
20260506083317 57 282 0.0 3.0 0.00 0.00 0.00 74 1019.1
20260506082818 58 282 1.0 3.0 0.00 0.00 0.00 74 1019.2
20260506082317 58 275 0.0 3.0 0.00 0.00 0.00 74 1019.1
20260506082042 58 274 1.0 3.0 0.00 0.00 0.00 73 1019.1
20260506081318 58 234 0.0 2.0 0.00 0.00 0.00 73 1019.0
20260506080818 58 234 0.0 2.0 0.00 0.00 0.00 73 1019.0
20260506080540 58 234 0.0 3.0 0.00 0.00 0.00 73 1019.1
20260506073318 58 39 0.0 3.0 0.00 0.00 0.00 73 1018.9
20260506072816 58 271 0.0 3.0 0.00 0.00 0.00 73 1018.8
20260506072317 58 32 1.0 3.0 0.00 0.00 0.00 73 1018.8
20260506071817 58 281 0.0 2.0 0.00 0.00 0.00 73 1018.9
20260506071317 58 276 0.0 2.0 0.00 0.00 0.00 73 1018.8
20260506070816 58 281 0.0 2.0 0.00 0.00 0.00 72 1018.7
20260506070537 58 289 0.0 3.0 0.00 0.00 0.00 72 1018.6
20260506062314 59 279 1.0 3.0 0.00 0.00 0.00 70 1018.4
20260506061815 59 11 1.0 4.0 0.00 0.00 0.00 70 1018.4
20260506061804 59 10 0.0 4.0 0.00 0.00 0.00 70 1018.3
20260506061032 59 11 0.0 3.0 0.00 0.00 0.00 70 1018.3
20260506060316 59 255 1.0 3.0 0.00 0.00 0.00 70 1018.2
20260506051314 59 241 1.0 4.0 0.00 0.00 0.00 70 1018.0
20260506050814 59 261 0.0 6.0 0.00 0.00 0.00 70 1018.0
20260506050533 59 295 2.0 6.0 0.00 0.00 0.00 70 1017.9
20260506044814 60 241 1.0 4.0 0.00 0.00 0.00 70 1017.7
20260506044313 60 203 1.0 4.0 0.00 0.00 0.00 70 1017.7
20260506043814 60 254 1.0 3.0 0.00 0.00 0.00 70 1017.6
20260506043313 60 247 0.0 2.0 0.00 0.00 0.00 70 1017.5
20260506042812 60 307 1.0 3.0 0.00 0.00 0.00 69 1017.5
20260506042313 60 4 1.0 3.0 0.00 0.00 0.00 69 1017.4
20260506042034 60 278 1.0 3.0 0.00 0.00 0.00 68 1017.5
20260506041312 60 281 0.0 2.0 0.00 0.00 0.00 67 1017.4
20260506041255 60 282 0.0 2.0 0.00 0.00 0.00 67 1017.3
20260506040313 60 282 0.0 2.0 0.00 0.00 0.00 67 1017.2
20260506035812 60 281 0.0 2.0 0.00 0.00 0.00 67 1017.1
20260506035312 60 282 0.0 3.0 0.00 0.00 0.00 66 1017.1
20260506034812 60 282 0.0 3.0 0.00 0.00 0.00 66 1017.1
20260506034311 60 268 1.0 3.0 0.00 0.00 0.00 66 1017.0
20260506033811 60 255 1.0 5.0 0.00 0.00 0.00 66 1016.9
20260506033312 60 243 1.0 5.0 0.00 0.00 0.00 66 1016.9
20260506032811 60 286 0.0 0.0 0.00 0.00 0.00 66 1016.6
20260506032311 60 286 0.0 1.0 0.00 0.00 0.00 65 1016.6
20260506032036 60 286 0.0 2.0 0.00 0.00 0.00 66 1016.5
20260506031311 61 286 0.0 2.0 0.00 0.00 0.00 65 1016.5
20260506030811 61 283 1.0 2.0 0.00 0.00 0.00 66 1016.4
20260506030310 61 292 0.0 2.0 0.00 0.00 0.00 66 1016.4
20260506025811 61 288 0.0 3.0 0.00 0.00 0.00 66 1016.3
20260506025309 61 305 0.0 3.0 0.00 0.00 0.00 66 1016.2
20260506024810 61 299 1.0 3.0 0.00 0.00 0.00 66 1016.1
20260506024530 61 299 1.0 3.0 0.00 0.00 0.00 66 1016.0
20260506023810 61 298 0.0 4.0 0.00 0.00 0.00 66 1016.1
20260506023311 61 278 1.0 4.0 0.00 0.00 0.00 66 1016.0
20260506022810 61 255 2.0 3.0 0.00 0.00 0.00 65 1016.0
20260506022310 61 289 2.0 3.0 0.00 0.00 0.00 65 1016.0
20260506021810 61 282 1.0 4.0 0.00 0.00 0.00 66 1016.0
20260506021308 61 290 2.0 4.0 0.00 0.00 0.00 65 1015.9
20260506020809 61 272 1.0 4.0 0.00 0.00 0.00 66 1016.0
20260506020309 61 269 2.0 5.0 0.00 0.00 0.00 66 1015.9
20260506015809 61 264 2.0 5.0 0.00 0.00 0.00 66 1015.9
20260506015309 61 268 3.0 5.0 0.00 0.00 0.00 66 1015.9
20260506014810 61 312 1.0 4.0 0.00 0.00 0.00 66 1016.0
20260506014310 62 71 1.0 2.0 0.00 0.00 0.00 66 1016.0
20260506013809 62 276 0.0 4.0 0.00 0.00 0.00 66 1016.0
20260506013309 62 269 2.0 4.0 0.00 0.00 0.00 66 1016.0
20260506012808 62 344 1.0 4.0 0.00 0.00 0.00 66 1016.0
20260506012308 62 258 1.0 3.0 0.00 0.00 0.00 65 1015.9
20260506011808 62 89 0.0 3.0 0.00 0.00 0.00 66 1015.9
20260506011308 62 228 1.0 3.0 0.00 0.00 0.00 66 1015.8
20260506010808 62 264 0.0 4.0 0.00 0.00 0.00 65 1015.8
20260506010533 62 276 1.0 4.0 0.00 0.00 0.00 65 1015.8
20260506005808 62 86 0.0 2.0 0.00 0.00 0.00 66 1015.8
20260506005308 62 78 0.0 3.0 0.00 0.00 0.00 66 1015.9
20260506005030 62 65 0.0 3.0 0.00 0.00 0.00 65 1015.8
20260506004308 62 151 1.0 3.0 0.00 0.00 0.00 65 1015.8